GEFSNGP_prec_meanprecacc_276.txt.gz
Total_Precipitation_Accumulation
0.34 0.33 0.41 0.61 0.72 0.62 0.66 0.77 1.04 0.94 0.82 0.80 0.77 0.79 0.79 0.84 0.87 0.87 0.93 0.93 0.89 0.88 0.92 1.01 1.05 1.06 1.16 1.23 1.27 1.37 1.42 1.36 1.33 1.23 1.09 1.03 1.03 0.98 1.04 1.10 1.09 1.15 1.22 1.30
0.19 0.17 0.27 0.52 0.62 0.62 0.61 0.61 0.64 0.58 0.57 0.48 0.46 0.52 0.57 0.64 0.62 0.65 0.71 0.71 0.69 0.67 0.68 0.74 0.68 0.71 0.78 0.94 1.11 1.27 1.34 1.29 1.18 1.06 1.03 0.98 0.92 0.89 0.93 0.96 1.00 1.04 1.10 1.26
0.27 0.20 0.29 0.53 0.53 0.57 0.43 0.31 0.31 0.38 0.39 0.32 0.33 0.42 0.48 0.57 0.59 0.55 0.59 0.61 0.63 0.62 0.59 0.63 0.59 0.61 0.68 0.78 0.95 1.08 1.14 1.10 0.98 0.90 0.87 0.83 0.79 0.83 0.88 0.89 0.93 0.97 0.97 1.10
0.41 0.39 0.62 0.71 0.55 0.48 0.41 0.26 0.19 0.22 0.25 0.26 0.28 0.36 0.39 0.47 0.57 0.53 0.49 0.52 0.56 0.58 0.56 0.59 0.63 0.66 0.75 0.82 0.85 0.93 1.02 1.00 0.93 0.84 0.78 0.75 0.70 0.75 0.87 0.87 0.84 0.87 0.88 0.87
0.55 0.55 0.59 0.54 0.38 0.36 0.46 0.44 0.22 0.18 0.19 0.19 0.23 0.30 0.32 0.35 0.40 0.41 0.36 0.33 0.34 0.37 0.40 0.46 0.51 0.56 0.59 0.61 0.64 0.69 0.76 0.79 0.76 0.69 0.71 0.76 0.71 0.77 0.83 0.81 0.82 0.79 0.83 0.83
0.62 0.63 0.67 0.47 0.22 0.20 0.36 0.60 0.28 0.15 0.13 0.13 0.19 0.32 0.30 0.23 0.25 0.26 0.27 0.25 0.22 0.22 0.24 0.29 0.34 0.46 0.52 0.50 0.45 0.47 0.50 0.53 0.59 0.58 0.61 0.68 0.76 0.83 0.81 0.77 0.81 0.80 0.76 0.74
0.69 0.81 0.85 0.57 0.29 0.25 0.52 0.63 0.30 0.16 0.13 0.14 0.18 0.22 0.21 0.19 0.20 0.19 0.21 0.23 0.22 0.21 0.22 0.26 0.31 0.36 0.40 0.45 0.42 0.40 0.42 0.43 0.46 0.48 0.53 0.64 0.70 0.66 0.64 0.67 0.73 0.74 0.76 0.70
0.87 1.08 1.17 0.73 0.51 0.52 0.49 0.31 0.20 0.15 0.14 0.16 0.19 0.18 0.17 0.17 0.17 0.15 0.17 0.19 0.19 0.20 0.23 0.28 0.29 0.29 0.31 0.33 0.33 0.35 0.36 0.39 0.39 0.37 0.38 0.43 0.50 0.55 0.55 0.56 0.58 0.58 0.60 0.58
0.96 0.97 0.83 0.60 0.51 0.42 0.34 0.27 0.18 0.17 0.18 0.18 0.19 0.17 0.16 0.15 0.15 0.13 0.15 0.17 0.18 0.22 0.28 0.32 0.32 0.29 0.28 0.28 0.31 0.35 0.36 0.38 0.37 0.36 0.36 0.37 0.42 0.47 0.52 0.56 0.57 0.54 0.50 0.49
0.48 0.48 0.42 0.34 0.30 0.27 0.24 0.23 0.18 0.16 0.18 0.21 0.21 0.20 0.18 0.16 0.15 0.15 0.15 0.17 0.18 0.23 0.27 0.34 0.33 0.33 0.32 0.30 0.28 0.30 0.32 0.35 0.36 0.38 0.39 0.38 0.41 0.46 0.53 0.53 0.48 0.45 0.47 0.49
0.29 0.26 0.26 0.24 0.22 0.22 0.21 0.18 0.15 0.14 0.17 0.22 0.22 0.20 0.18 0.18 0.19 0.18 0.17 0.17 0.18 0.22 0.26 0.32 0.36 0.35 0.34 0.32 0.29 0.28 0.30 0.31 0.32 0.36 0.40 0.39 0.36 0.37 0.44 0.46 0.44 0.45 0.47 0.51
0.24 0.16 0.19 0.21 0.18 0.18 0.19 0.17 0.15 0.16 0.20 0.21 0.19 0.17 0.17 0.17 0.22 0.23 0.20 0.19 0.21 0.22 0.25 0.26 0.31 0.36 0.38 0.39 0.36 0.33 0.32 0.31 0.32 0.35 0.40 0.41 0.38 0.37 0.40 0.40 0.44 0.44 0.41 0.41
0.15 0.11 0.12 0.15 0.14 0.13 0.13 0.12 0.14 0.16 0.19 0.19 0.18 0.18 0.16 0.16 0.21 0.24 0.24 0.25 0.27 0.28 0.27 0.25 0.26 0.29 0.33 0.40 0.41 0.42 0.40 0.37 0.36 0.36 0.37 0.39 0.41 0.42 0.42 0.38 0.34 0.33 0.34 0.32
0.09 0.11 0.14 0.15 0.15 0.11 0.11 0.11 0.15 0.16 0.16 0.17 0.18 0.17 0.16 0.16 0.19 0.20 0.23 0.27 0.28 0.28 0.29 0.30 0.28 0.29 0.35 0.41 0.45 0.50 0.53 0.53 0.46 0.42 0.41 0.39 0.42 0.46 0.49 0.51 0.44 0.34 0.32 0.33
0.11 0.12 0.16 0.17 0.15 0.13 0.12 0.12 0.14 0.14 0.15 0.16 0.15 0.17 0.19 0.22 0.22 0.23 0.23 0.22 0.21 0.21 0.22 0.26 0.28 0.29 0.34 0.35 0.39 0.44 0.51 0.55 0.54 0.53 0.50 0.48 0.48 0.54 0.55 0.50 0.43 0.40 0.36 0.34
0.16 0.13 0.13 0.14 0.15 0.14 0.11 0.12 0.13 0.12 0.13 0.14 0.14 0.19 0.24 0.27 0.27 0.28 0.25 0.21 0.19 0.18 0.18 0.23 0.26 0.27 0.29 0.29 0.30 0.35 0.37 0.44 0.51 0.56 0.56 0.54 0.55 0.56 0.55 0.52 0.44 0.40 0.38 0.35
0.16 0.18 0.18 0.16 0.15 0.15 0.15 0.15 0.14 0.13 0.12 0.11 0.15 0.22 0.25 0.26 0.25 0.28 0.29 0.26 0.23 0.20 0.19 0.21 0.25 0.25 0.25 0.24 0.25 0.28 0.30 0.33 0.38 0.44 0.49 0.49 0.51 0.53 0.55 0.55 0.50 0.46 0.43 0.40
0.15 0.18 0.19 0.18 0.17 0.17 0.18 0.19 0.18 0.15 0.13 0.12 0.14 0.22 0.28 0.30 0.30 0.31 0.33 0.31 0.26 0.22 0.20 0.23 0.24 0.23 0.23 0.25 0.27 0.29 0.30 0.31 0.33 0.36 0.40 0.44 0.46 0.47 0.52 0.54 0.53 0.51 0.50 0.49
0.14 0.15 0.16 0.15 0.13 0.14 0.16 0.18 0.19 0.20 0.20 0.16 0.14 0.19 0.28 0.34 0.38 0.36 0.34 0.34 0.33 0.33 0.32 0.31 0.33 0.27 0.25 0.29 0.31 0.27 0.26 0.27 0.30 0.33 0.37 0.40 0.42 0.42 0.46 0.48 0.49 0.48 0.46 0.47
0.19 0.21 0.22 0.19 0.15 0.13 0.14 0.17 0.17 0.20 0.22 0.22 0.19 0.20 0.28 0.34 0.36 0.33 0.30 0.31 0.36 0.43 0.42 0.42 0.40 0.35 0.32 0.33 0.35 0.29 0.29 0.30 0.34 0.37 0.36 0.34 0.36 0.40 0.42 0.44 0.46 0.48 0.50 0.52
0.27 0.32 0.29 0.24 0.18 0.14 0.13 0.14 0.15 0.18 0.21 0.21 0.22 0.25 0.33 0.41 0.40 0.36 0.32 0.31 0.33 0.38 0.40 0.42 0.40 0.40 0.39 0.41 0.43 0.36 0.35 0.34 0.36 0.39 0.40 0.38 0.36 0.37 0.41 0.45 0.48 0.52 0.56 0.57
0.29 0.30 0.28 0.27 0.24 0.19 0.17 0.16 0.17 0.18 0.19 0.20 0.22 0.26 0.33 0.41 0.43 0.38 0.33 0.36 0.39 0.42 0.38 0.37 0.37 0.43 0.49 0.49 0.40 0.38 0.39 0.39 0.40 0.39 0.39 0.40 0.42 0.43 0.45 0.50 0.54 0.57 0.59 0.60
0.28 0.28 0.32 0.33 0.31 0.26 0.23 0.22 0.23 0.23 0.23 0.25 0.26 0.28 0.31 0.35 0.43 0.47 0.39 0.35 0.37 0.42 0.38 0.38 0.43 0.48 0.52 0.47 0.43 0.43 0.42 0.40 0.39 0.40 0.42 0.44 0.46 0.49 0.53 0.55 0.56 0.58 0.63 0.68
0.25 0.27 0.32 0.35 0.34 0.32 0.31 0.30 0.32 0.32 0.32 0.31 0.32 0.34 0.36 0.39 0.43 0.50 0.45 0.41 0.44 0.45 0.39 0.42 0.47 0.53 0.54 0.43 0.43 0.47 0.50 0.48 0.47 0.47 0.49 0.50 0.50 0.52 0.56 0.59 0.61 0.64 0.70 0.77
0.22 0.22 0.26 0.32 0.34 0.32 0.30 0.29 0.31 0.34 0.34 0.33 0.35 0.38 0.39 0.43 0.48 0.52 0.48 0.42 0.46 0.49 0.48 0.52 0.56 0.56 0.52 0.49 0.49 0.51 0.55 0.57 0.61 0.61 0.57 0.57 0.59 0.62 0.65 0.68 0.72 0.75 0.76 0.78
0.21 0.20 0.22 0.27 0.30 0.29 0.27 0.27 0.29 0.33 0.35 0.34 0.34 0.38 0.41 0.43 0.48 0.55 0.58 0.52 0.50 0.54 0.54 0.54 0.55 0.55 0.54 0.59 0.62 0.62 0.63 0.64 0.63 0.59 0.57 0.58 0.59 0.60 0.62 0.64 0.67 0.73 0.78 0.79
0.21 0.20 0.21 0.24 0.26 0.25 0.25 0.27 0.30 0.32 0.36 0.38 0.38 0.39 0.39 0.41 0.46 0.51 0.58 0.59 0.55 0.54 0.58 0.59 0.58 0.57 0.57 0.60 0.65 0.68 0.69 0.67 0.66 0.65 0.63 0.64 0.65 0.66 0.65 0.65 0.69 0.73 0.78 0.83

GEFSNGP_prec_meanprecacc_282.txt.gz
Total_Precipitation_Accumulation
0.34 0.33 0.42 0.62 0.73 0.63 0.66 0.77 1.04 0.94 0.82 0.80 0.77 0.80 0.80 0.85 0.87 0.88 0.93 0.93 0.89 0.89 0.93 1.03 1.06 1.07 1.17 1.24 1.28 1.38 1.44 1.39 1.36 1.25 1.12 1.06 1.05 0.99 1.06 1.13 1.11 1.17 1.24 1.33
0.19 0.18 0.27 0.52 0.62 0.63 0.61 0.61 0.64 0.59 0.57 0.48 0.47 0.52 0.58 0.64 0.62 0.65 0.71 0.71 0.69 0.67 0.69 0.76 0.70 0.72 0.79 0.95 1.12 1.29 1.36 1.32 1.20 1.09 1.06 1.01 0.93 0.89 0.94 0.97 1.01 1.06 1.11 1.28
0.29 0.21 0.30 0.53 0.53 0.57 0.43 0.31 0.31 0.38 0.40 0.33 0.34 0.42 0.48 0.57 0.59 0.55 0.59 0.61 0.63 0.63 0.60 0.64 0.60 0.62 0.70 0.79 0.96 1.08 1.15 1.12 1.01 0.93 0.90 0.87 0.81 0.84 0.89 0.91 0.95 0.99 0.98 1.12
0.43 0.41 0.63 0.72 0.55 0.48 0.41 0.26 0.19 0.22 0.25 0.26 0.28 0.36 0.39 0.47 0.57 0.53 0.49 0.52 0.57 0.59 0.57 0.60 0.65 0.69 0.77 0.83 0.86 0.94 1.03 1.02 0.95 0.86 0.81 0.79 0.73 0.77 0.89 0.89 0.86 0.90 0.90 0.89
0.56 0.57 0.60 0.55 0.38 0.36 0.46 0.44 0.23 0.18 0.19 0.20 0.23 0.31 0.33 0.35 0.40 0.41 0.37 0.34 0.34 0.38 0.41 0.47 0.52 0.57 0.60 0.63 0.66 0.71 0.77 0.82 0.79 0.71 0.73 0.80 0.74 0.80 0.85 0.84 0.84 0.81 0.85 0.85
0.63 0.65 0.68 0.48 0.23 0.20 0.36 0.60 0.28 0.16 0.13 0.13 0.19 0.32 0.30 0.23 0.25 0.26 0.27 0.25 0.22 0.23 0.25 0.30 0.35 0.47 0.53 0.52 0.48 0.50 0.54 0.58 0.63 0.61 0.63 0.71 0.79 0.84 0.83 0.80 0.85 0.82 0.78 0.75
0.71 0.82 0.86 0.57 0.30 0.25 0.53 0.64 0.30 0.16 0.13 0.14 0.18 0.22 0.21 0.19 0.20 0.19 0.21 0.23 0.22 0.22 0.23 0.27 0.31 0.37 0.41 0.47 0.45 0.45 0.48 0.49 0.50 0.53 0.57 0.67 0.73 0.68 0.67 0.69 0.76 0.77 0.78 0.73
0.89 1.10 1.19 0.74 0.51 0.53 0.50 0.32 0.21 0.15 0.14 0.17 0.19 0.18 0.17 0.17 0.18 0.15 0.17 0.20 0.19 0.21 0.24 0.29 0.30 0.30 0.33 0.35 0.36 0.39 0.42 0.45 0.43 0.40 0.42 0.48 0.54 0.59 0.59 0.60 0.62 0.62 0.63 0.62
0.98 0.99 0.84 0.61 0.52 0.42 0.34 0.28 0.18 0.18 0.18 0.18 0.19 0.17 0.17 0.16 0.15 0.13 0.15 0.17 0.19 0.23 0.28 0.32 0.33 0.30 0.29 0.30 0.32 0.38 0.42 0.44 0.42 0.40 0.39 0.41 0.47 0.52 0.57 0.61 0.62 0.59 0.55 0.53
0.49 0.49 0.43 0.35 0.31 0.27 0.24 0.23 0.18 0.16 0.18 0.21 0.21 0.20 0.18 0.17 0.16 0.15 0.15 0.17 0.19 0.24 0.28 0.34 0.34 0.33 0.32 0.30 0.29 0.33 0.38 0.42 0.40 0.42 0.42 0.41 0.44 0.50 0.59 0.60 0.55 0.51 0.52 0.53
0.31 0.27 0.26 0.25 0.23 0.22 0.22 0.18 0.15 0.14 0.17 0.22 0.22 0.20 0.18 0.18 0.20 0.19 0.18 0.17 0.19 0.23 0.27 0.32 0.36 0.35 0.34 0.32 0.29 0.30 0.34 0.37 0.36 0.39 0.43 0.41 0.38 0.40 0.49 0.52 0.50 0.51 0.52 0.55
0.25 0.17 0.19 0.22 0.19 0.18 0.19 0.17 0.15 0.16 0.20 0.21 0.19 0.17 0.17 0.18 0.22 0.23 0.21 0.19 0.21 0.22 0.26 0.27 0.31 0.36 0.38 0.40 0.36 0.34 0.33 0.36 0.37 0.38 0.43 0.43 0.40 0.38 0.41 0.43 0.48 0.50 0.47 0.46
0.16 0.12 0.12 0.15 0.14 0.13 0.14 0.12 0.14 0.16 0.19 0.19 0.18 0.19 0.16 0.16 0.21 0.24 0.24 0.25 0.28 0.29 0.28 0.25 0.26 0.30 0.33 0.41 0.41 0.42 0.40 0.39 0.40 0.40 0.40 0.41 0.44 0.44 0.44 0.39 0.35 0.36 0.39 0.36
0.10 0.11 0.14 0.16 0.15 0.11 0.11 0.11 0.15 0.16 0.16 0.17 0.18 0.17 0.16 0.16 0.20 0.20 0.23 0.27 0.28 0.28 0.29 0.30 0.29 0.30 0.35 0.42 0.46 0.51 0.54 0.54 0.49 0.45 0.43 0.42 0.43 0.48 0.52 0.53 0.45 0.35 0.34 0.35
0.11 0.13 0.17 0.17 0.16 0.13 0.12 0.12 0.15 0.14 0.15 0.16 0.15 0.17 0.19 0.22 0.23 0.24 0.23 0.22 0.21 0.22 0.22 0.26 0.28 0.29 0.34 0.36 0.39 0.44 0.52 0.56 0.56 0.55 0.52 0.50 0.50 0.55 0.57 0.53 0.46 0.42 0.38 0.36
0.16 0.13 0.14 0.14 0.15 0.14 0.11 0.12 0.13 0.13 0.14 0.14 0.15 0.19 0.24 0.27 0.28 0.29 0.26 0.21 0.19 0.18 0.18 0.23 0.27 0.27 0.29 0.29 0.31 0.36 0.38 0.45 0.53 0.58 0.57 0.55 0.57 0.58 0.57 0.54 0.47 0.43 0.40 0.37
0.16 0.19 0.18 0.17 0.16 0.16 0.16 0.15 0.14 0.13 0.12 0.11 0.15 0.22 0.26 0.26 0.26 0.29 0.30 0.26 0.24 0.21 0.19 0.22 0.26 0.26 0.26 0.25 0.27 0.30 0.31 0.34 0.40 0.47 0.51 0.51 0.53 0.55 0.57 0.57 0.52 0.49 0.46 0.44
0.15 0.18 0.20 0.19 0.17 0.18 0.18 0.19 0.18 0.15 0.13 0.12 0.14 0.22 0.29 0.30 0.30 0.32 0.35 0.32 0.27 0.23 0.22 0.24 0.24 0.24 0.25 0.27 0.29 0.31 0.31 0.33 0.35 0.38 0.43 0.46 0.47 0.49 0.53 0.56 0.55 0.53 0.53 0.53
0.15 0.16 0.17 0.16 0.14 0.15 0.17 0.18 0.19 0.21 0.20 0.17 0.14 0.20 0.28 0.34 0.38 0.36 0.35 0.36 0.34 0.35 0.34 0.34 0.35 0.29 0.27 0.31 0.33 0.29 0.28 0.29 0.31 0.35 0.39 0.42 0.43 0.43 0.47 0.50 0.51 0.51 0.49 0.50
0.21 0.23 0.24 0.20 0.16 0.14 0.15 0.17 0.18 0.20 0.22 0.22 0.19 0.20 0.28 0.34 0.36 0.33 0.31 0.32 0.38 0.45 0.45 0.45 0.43 0.38 0.35 0.35 0.37 0.31 0.31 0.32 0.36 0.39 0.37 0.35 0.37 0.40 0.43 0.45 0.48 0.50 0.53 0.54
0.28 0.33 0.31 0.26 0.20 0.16 0.14 0.15 0.16 0.19 0.21 0.21 0.23 0.26 0.33 0.41 0.40 0.37 0.34 0.33 0.35 0.40 0.44 0.47 0.45 0.44 0.42 0.44 0.45 0.39 0.37 0.36 0.38 0.40 0.40 0.39 0.37 0.39 0.42 0.46 0.50 0.54 0.58 0.59
0.30 0.31 0.29 0.29 0.26 0.21 0.20 0.18 0.19 0.19 0.20 0.21 0.23 0.27 0.35 0.43 0.45 0.41 0.36 0.39 0.42 0.45 0.43 0.43 0.42 0.47 0.52 0.52 0.43 0.41 0.41 0.41 0.42 0.41 0.40 0.41 0.44 0.45 0.46 0.51 0.55 0.58 0.61 0.62
0.29 0.29 0.33 0.35 0.33 0.30 0.27 0.25 0.26 0.26 0.26 0.28 0.29 0.32 0.35 0.39 0.46 0.50 0.43 0.38 0.40 0.45 0.43 0.45 0.48 0.51 0.56 0.50 0.46 0.45 0.44 0.41 0.41 0.42 0.44 0.46 0.48 0.50 0.54 0.56 0.57 0.59 0.65 0.70
0.25 0.28 0.33 0.36 0.36 0.34 0.34 0.34 0.35 0.35 0.34 0.34 0.35 0.37 0.38 0.41 0.45 0.52 0.47 0.44 0.47 0.49 0.43 0.49 0.53 0.56 0.57 0.45 0.45 0.50 0.52 0.50 0.49 0.49 0.52 0.53 0.52 0.54 0.57 0.61 0.62 0.65 0.71 0.78
0.23 0.23 0.27 0.33 0.35 0.35 0.33 0.32 0.34 0.36 0.36 0.35 0.37 0.40 0.41 0.45 0.51 0.56 0.52 0.45 0.48 0.52 0.52 0.58 0.60 0.58 0.54 0.52 0.52 0.54 0.57 0.59 0.63 0.63 0.59 0.60 0.61 0.64 0.66 0.69 0.73 0.76 0.77 0.79
0.22 0.20 0.23 0.28 0.31 0.31 0.29 0.29 0.31 0.34 0.36 0.35 0.35 0.39 0.42 0.44 0.49 0.56 0.60 0.55 0.52 0.56 0.57 0.58 0.58 0.58 0.56 0.62 0.65 0.65 0.65 0.66 0.65 0.61 0.58 0.59 0.61 0.62 0.63 0.65 0.68 0.73 0.78 0.79
0.22 0.20 0.21 0.25 0.27 0.26 0.26 0.29 0.32 0.35 0.37 0.39 0.39 0.40 0.39 0.42 0.46 0.52 0.60 0.60 0.57 0.56 0.60 0.62 0.61 0.60 0.60 0.64 0.68 0.72 0.72 0.70 0.68 0.66 0.65 0.66 0.66 0.67 0.67 0.67 0.70 0.74 0.79 0.83

GEFSNGP_prec_meanprecacc_288.txt.gz
Total_Precipitation_Accumulation
0.36 0.34 0.43 0.64 0.75 0.65 0.67 0.78 1.05 0.95 0.82 0.81 0.78 0.81 0.82 0.87 0.91 0.91 0.95 0.95 0.91 0.92 0.96 1.07 1.11 1.12 1.21 1.26 1.29 1.39 1.46 1.42 1.40 1.27 1.14 1.08 1.08 1.02 1.07 1.14 1.13 1.20 1.27 1.35
0.21 0.18 0.28 0.53 0.64 0.64 0.62 0.62 0.65 0.59 0.58 0.49 0.48 0.54 0.60 0.67 0.65 0.68 0.73 0.73 0.71 0.69 0.71 0.78 0.72 0.75 0.82 0.97 1.14 1.31 1.38 1.33 1.24 1.12 1.09 1.03 0.96 0.92 0.94 0.98 1.03 1.08 1.14 1.31
0.29 0.21 0.31 0.55 0.55 0.58 0.44 0.31 0.31 0.39 0.40 0.34 0.35 0.43 0.49 0.59 0.62 0.58 0.60 0.63 0.64 0.64 0.61 0.64 0.62 0.64 0.71 0.81 0.98 1.12 1.17 1.13 1.03 0.96 0.93 0.91 0.86 0.88 0.90 0.91 0.96 1.01 1.00 1.14
0.44 0.42 0.64 0.74 0.57 0.49 0.41 0.26 0.19 0.22 0.25 0.26 0.29 0.36 0.40 0.48 0.58 0.55 0.51 0.53 0.57 0.59 0.57 0.60 0.66 0.70 0.78 0.84 0.88 0.96 1.05 1.04 0.98 0.90 0.84 0.81 0.78 0.83 0.91 0.89 0.86 0.90 0.91 0.90
0.57 0.57 0.61 0.56 0.39 0.37 0.46 0.44 0.23 0.19 0.20 0.20 0.23 0.31 0.33 0.36 0.41 0.41 0.38 0.35 0.35 0.38 0.41 0.48 0.53 0.59 0.61 0.64 0.67 0.73 0.80 0.85 0.82 0.74 0.76 0.82 0.77 0.85 0.89 0.85 0.84 0.82 0.86 0.86
0.64 0.65 0.69 0.49 0.24 0.21 0.37 0.61 0.29 0.17 0.14 0.14 0.20 0.33 0.31 0.24 0.25 0.26 0.27 0.26 0.23 0.23 0.25 0.30 0.36 0.48 0.54 0.53 0.49 0.51 0.57 0.60 0.65 0.63 0.66 0.73 0.80 0.87 0.88 0.83 0.86 0.84 0.80 0.77
0.71 0.83 0.87 0.58 0.30 0.26 0.54 0.65 0.31 0.17 0.14 0.15 0.19 0.23 0.22 0.20 0.21 0.19 0.22 0.23 0.22 0.22 0.24 0.27 0.32 0.38 0.42 0.48 0.45 0.45 0.50 0.51 0.53 0.55 0.59 0.70 0.76 0.71 0.71 0.73 0.78 0.79 0.82 0.77
0.90 1.11 1.20 0.74 0.53 0.54 0.51 0.32 0.21 0.16 0.15 0.17 0.20 0.19 0.18 0.18 0.18 0.16 0.18 0.20 0.20 0.21 0.24 0.30 0.31 0.31 0.33 0.35 0.36 0.39 0.42 0.47 0.45 0.42 0.44 0.50 0.58 0.64 0.64 0.63 0.65 0.65 0.67 0.66
1.00 1.01 0.85 0.61 0.53 0.44 0.35 0.28 0.19 0.18 0.19 0.19 0.20 0.18 0.18 0.16 0.16 0.14 0.16 0.17 0.19 0.23 0.29 0.33 0.34 0.31 0.29 0.30 0.32 0.38 0.42 0.45 0.43 0.42 0.40 0.43 0.50 0.58 0.64 0.67 0.66 0.62 0.57 0.56
0.51 0.51 0.44 0.36 0.31 0.28 0.24 0.24 0.19 0.16 0.18 0.21 0.21 0.20 0.19 0.17 0.17 0.16 0.16 0.17 0.19 0.25 0.28 0.35 0.34 0.34 0.32 0.30 0.29 0.33 0.38 0.42 0.42 0.44 0.44 0.43 0.47 0.54 0.65 0.67 0.61 0.56 0.56 0.56
0.32 0.28 0.28 0.26 0.24 0.23 0.22 0.18 0.15 0.15 0.17 0.22 0.22 0.20 0.19 0.20 0.21 0.20 0.19 0.18 0.20 0.23 0.27 0.32 0.37 0.35 0.35 0.33 0.30 0.30 0.34 0.37 0.38 0.42 0.46 0.44 0.40 0.43 0.54 0.58 0.58 0.60 0.60 0.62
0.27 0.18 0.22 0.24 0.21 0.20 0.20 0.17 0.16 0.17 0.20 0.22 0.19 0.18 0.18 0.18 0.24 0.25 0.22 0.20 0.22 0.23 0.27 0.27 0.31 0.37 0.39 0.40 0.37 0.34 0.34 0.36 0.38 0.41 0.46 0.47 0.42 0.40 0.45 0.48 0.56 0.58 0.56 0.56
0.19 0.14 0.16 0.18 0.17 0.15 0.14 0.12 0.14 0.16 0.19 0.20 0.18 0.19 0.17 0.16 0.22 0.25 0.25 0.26 0.28 0.29 0.28 0.26 0.27 0.30 0.34 0.42 0.42 0.43 0.41 0.40 0.41 0.42 0.42 0.44 0.46 0.46 0.45 0.42 0.41 0.44 0.45 0.42
0.13 0.13 0.17 0.18 0.17 0.13 0.12 0.12 0.16 0.17 0.16 0.17 0.18 0.17 0.16 0.17 0.20 0.21 0.24 0.28 0.29 0.28 0.30 0.30 0.29 0.30 0.36 0.43 0.47 0.52 0.55 0.56 0.51 0.47 0.46 0.45 0.46 0.50 0.53 0.54 0.48 0.39 0.38 0.39
0.13 0.14 0.18 0.18 0.17 0.15 0.13 0.13 0.15 0.14 0.15 0.16 0.16 0.17 0.19 0.22 0.23 0.25 0.24 0.23 0.22 0.22 0.22 0.27 0.29 0.29 0.34 0.36 0.40 0.45 0.53 0.57 0.57 0.57 0.55 0.53 0.53 0.58 0.59 0.54 0.48 0.45 0.41 0.39
0.17 0.15 0.15 0.15 0.15 0.14 0.12 0.12 0.14 0.13 0.14 0.15 0.15 0.19 0.24 0.28 0.28 0.30 0.27 0.22 0.19 0.18 0.19 0.23 0.27 0.28 0.30 0.30 0.31 0.37 0.39 0.46 0.54 0.59 0.59 0.58 0.60 0.60 0.59 0.56 0.48 0.45 0.42 0.40
0.17 0.21 0.21 0.18 0.16 0.16 0.16 0.16 0.14 0.13 0.12 0.11 0.15 0.23 0.26 0.27 0.26 0.29 0.30 0.27 0.24 0.22 0.20 0.22 0.26 0.26 0.27 0.26 0.28 0.31 0.32 0.35 0.41 0.47 0.52 0.52 0.55 0.58 0.59 0.58 0.53 0.50 0.48 0.45
0.16 0.20 0.22 0.21 0.18 0.18 0.19 0.19 0.18 0.16 0.13 0.12 0.14 0.23 0.29 0.30 0.31 0.32 0.35 0.33 0.28 0.23 0.22 0.25 0.25 0.25 0.25 0.28 0.30 0.33 0.33 0.34 0.36 0.39 0.45 0.47 0.50 0.52 0.56 0.57 0.56 0.54 0.54 0.54
0.16 0.17 0.18 0.17 0.14 0.15 0.18 0.19 0.20 0.21 0.20 0.17 0.14 0.20 0.29 0.35 0.38 0.37 0.36 0.36 0.34 0.35 0.35 0.34 0.37 0.30 0.28 0.32 0.35 0.31 0.31 0.31 0.32 0.37 0.41 0.45 0.46 0.46 0.49 0.51 0.52 0.52 0.50 0.51
0.22 0.24 0.25 0.21 0.17 0.14 0.16 0.18 0.19 0.20 0.23 0.22 0.19 0.20 0.29 0.35 0.37 0.34 0.31 0.32 0.38 0.46 0.45 0.46 0.44 0.40 0.36 0.37 0.39 0.34 0.33 0.34 0.38 0.41 0.41 0.39 0.40 0.43 0.45 0.46 0.48 0.50 0.54 0.55
0.30 0.35 0.32 0.27 0.21 0.17 0.15 0.16 0.18 0.20 0.22 0.22 0.24 0.26 0.34 0.42 0.41 0.38 0.35 0.35 0.37 0.41 0.45 0.48 0.46 0.47 0.45 0.48 0.49 0.42 0.40 0.38 0.40 0.42 0.44 0.42 0.40 0.41 0.44 0.48 0.50 0.55 0.59 0.60
0.32 0.33 0.31 0.30 0.27 0.22 0.21 0.20 0.20 0.21 0.22 0.24 0.26 0.30 0.38 0.46 0.48 0.44 0.40 0.42 0.45 0.48 0.46 0.46 0.45 0.51 0.57 0.57 0.47 0.44 0.44 0.43 0.45 0.43 0.43 0.45 0.47 0.48 0.48 0.52 0.56 0.59 0.62 0.63
0.30 0.30 0.34 0.36 0.35 0.31 0.29 0.27 0.28 0.27 0.28 0.30 0.32 0.34 0.38 0.43 0.50 0.54 0.46 0.42 0.43 0.48 0.45 0.47 0.51 0.56 0.61 0.54 0.50 0.49 0.46 0.44 0.44 0.45 0.47 0.50 0.52 0.55 0.58 0.58 0.58 0.61 0.67 0.71
0.26 0.28 0.34 0.37 0.38 0.36 0.37 0.37 0.38 0.37 0.36 0.36 0.37 0.39 0.41 0.44 0.48 0.55 0.50 0.46 0.49 0.50 0.45 0.51 0.56 0.60 0.61 0.50 0.50 0.54 0.55 0.53 0.52 0.54 0.56 0.57 0.57 0.58 0.61 0.63 0.64 0.66 0.72 0.79
0.23 0.23 0.27 0.33 0.36 0.36 0.35 0.34 0.36 0.38 0.39 0.37 0.39 0.42 0.43 0.47 0.53 0.58 0.54 0.46 0.50 0.54 0.54 0.61 0.64 0.63 0.58 0.57 0.57 0.59 0.62 0.63 0.67 0.68 0.64 0.63 0.65 0.67 0.68 0.71 0.74 0.77 0.78 0.79
0.22 0.20 0.23 0.28 0.31 0.31 0.30 0.30 0.32 0.36 0.38 0.37 0.37 0.41 0.43 0.46 0.50 0.58 0.62 0.56 0.54 0.58 0.60 0.62 0.63 0.64 0.61 0.67 0.70 0.71 0.70 0.70 0.69 0.66 0.63 0.63 0.64 0.65 0.66 0.68 0.70 0.75 0.79 0.80
0.23 0.21 0.22 0.25 0.27 0.26 0.26 0.29 0.33 0.36 0.39 0.40 0.40 0.41 0.41 0.43 0.47 0.53 0.61 0.61 0.58 0.59 0.64 0.67 0.66 0.66 0.66 0.69 0.74 0.77 0.77 0.74 0.71 0.70 0.68 0.69 0.69 0.70 0.69 0.69 0.72 0.76 0.80 0.84

GEFSNGP_prec_meanprecacc_294.txt.gz
Total_Precipitation_Accumulation
0.36 0.35 0.44 0.65 0.76 0.66 0.69 0.79 1.06 0.96 0.83 0.81 0.78 0.82 0.83 0.88 0.91 0.92 0.96 0.96 0.93 0.95 1.00 1.10 1.15 1.16 1.24 1.29 1.31 1.41 1.47 1.47 1.44 1.32 1.18 1.10 1.10 1.03 1.08 1.15 1.14 1.21 1.27 1.35
0.21 0.19 0.29 0.54 0.66 0.66 0.63 0.62 0.66 0.60 0.59 0.50 0.49 0.54 0.60 0.68 0.67 0.70 0.75 0.75 0.73 0.72 0.74 0.82 0.77 0.79 0.86 1.00 1.17 1.33 1.39 1.34 1.27 1.16 1.13 1.06 0.98 0.94 0.95 0.99 1.04 1.09 1.15 1.31
0.30 0.22 0.32 0.56 0.57 0.60 0.45 0.32 0.32 0.40 0.41 0.35 0.35 0.43 0.50 0.60 0.64 0.63 0.64 0.65 0.67 0.67 0.64 0.68 0.66 0.68 0.75 0.84 1.00 1.13 1.18 1.14 1.04 0.98 0.95 0.93 0.88 0.90 0.92 0.92 0.96 1.01 1.01 1.14
0.45 0.42 0.65 0.75 0.59 0.50 0.42 0.27 0.20 0.23 0.26 0.27 0.30 0.37 0.40 0.49 0.59 0.57 0.57 0.57 0.60 0.62 0.60 0.63 0.69 0.73 0.81 0.87 0.89 0.96 1.06 1.05 0.98 0.91 0.85 0.83 0.80 0.84 0.92 0.90 0.87 0.91 0.92 0.91
0.57 0.58 0.62 0.58 0.42 0.39 0.48 0.46 0.24 0.19 0.20 0.20 0.24 0.32 0.35 0.36 0.42 0.43 0.42 0.40 0.38 0.40 0.43 0.49 0.56 0.61 0.62 0.65 0.68 0.74 0.81 0.86 0.83 0.74 0.77 0.83 0.79 0.88 0.91 0.86 0.85 0.82 0.86 0.87
0.64 0.66 0.70 0.51 0.26 0.22 0.37 0.63 0.30 0.17 0.15 0.14 0.21 0.34 0.32 0.25 0.26 0.27 0.28 0.27 0.24 0.24 0.26 0.31 0.38 0.50 0.56 0.54 0.50 0.52 0.58 0.61 0.67 0.65 0.67 0.75 0.82 0.89 0.91 0.85 0.88 0.84 0.80 0.78
0.72 0.84 0.88 0.59 0.31 0.26 0.55 0.66 0.31 0.18 0.14 0.16 0.20 0.24 0.23 0.21 0.22 0.21 0.23 0.23 0.23 0.23 0.24 0.28 0.34 0.40 0.43 0.49 0.46 0.46 0.51 0.52 0.55 0.57 0.61 0.72 0.78 0.73 0.73 0.75 0.80 0.80 0.82 0.77
0.91 1.13 1.21 0.75 0.53 0.55 0.52 0.33 0.22 0.17 0.16 0.18 0.21 0.19 0.19 0.19 0.19 0.17 0.18 0.20 0.20 0.22 0.25 0.31 0.32 0.33 0.34 0.36 0.37 0.40 0.43 0.48 0.46 0.44 0.45 0.52 0.60 0.67 0.66 0.66 0.68 0.66 0.68 0.67
1.01 1.02 0.86 0.61 0.53 0.44 0.37 0.29 0.20 0.19 0.19 0.20 0.20 0.18 0.18 0.17 0.16 0.14 0.16 0.18 0.19 0.25 0.30 0.34 0.35 0.32 0.30 0.30 0.33 0.39 0.43 0.46 0.44 0.42 0.42 0.45 0.53 0.62 0.68 0.71 0.69 0.64 0.59 0.57
0.51 0.51 0.44 0.36 0.32 0.29 0.26 0.25 0.19 0.17 0.19 0.22 0.21 0.20 0.19 0.17 0.17 0.16 0.16 0.17 0.19 0.25 0.29 0.35 0.35 0.34 0.33 0.31 0.30 0.34 0.39 0.44 0.44 0.45 0.46 0.46 0.49 0.57 0.69 0.72 0.66 0.60 0.58 0.58
0.33 0.28 0.28 0.26 0.25 0.24 0.23 0.19 0.16 0.15 0.17 0.22 0.22 0.20 0.19 0.20 0.22 0.20 0.19 0.18 0.20 0.24 0.28 0.33 0.37 0.36 0.35 0.33 0.31 0.31 0.35 0.39 0.39 0.43 0.47 0.46 0.41 0.44 0.56 0.62 0.65 0.67 0.65 0.66
0.28 0.19 0.22 0.25 0.23 0.22 0.22 0.18 0.16 0.17 0.21 0.22 0.19 0.18 0.18 0.18 0.24 0.25 0.22 0.21 0.22 0.23 0.27 0.28 0.32 0.38 0.39 0.41 0.38 0.35 0.35 0.37 0.39 0.42 0.46 0.48 0.43 0.42 0.46 0.50 0.59 0.63 0.62 0.62
0.20 0.15 0.17 0.19 0.18 0.18 0.16 0.14 0.15 0.16 0.19 0.20 0.18 0.19 0.17 0.16 0.22 0.26 0.25 0.26 0.29 0.30 0.29 0.26 0.27 0.31 0.35 0.43 0.44 0.45 0.42 0.41 0.42 0.43 0.43 0.44 0.47 0.47 0.47 0.43 0.42 0.46 0.48 0.47
0.14 0.15 0.18 0.19 0.18 0.16 0.15 0.13 0.16 0.17 0.16 0.17 0.18 0.18 0.16 0.17 0.20 0.21 0.24 0.28 0.30 0.29 0.30 0.31 0.30 0.31 0.37 0.44 0.48 0.53 0.56 0.57 0.51 0.48 0.47 0.46 0.48 0.51 0.54 0.56 0.49 0.40 0.40 0.42
0.14 0.15 0.19 0.19 0.18 0.16 0.15 0.14 0.16 0.14 0.15 0.16 0.16 0.17 0.19 0.22 0.23 0.25 0.25 0.23 0.22 0.22 0.22 0.27 0.29 0.30 0.35 0.37 0.40 0.46 0.54 0.58 0.58 0.57 0.56 0.54 0.55 0.60 0.61 0.56 0.49 0.47 0.43 0.41
0.18 0.16 0.16 0.15 0.16 0.15 0.12 0.13 0.15 0.14 0.14 0.15 0.15 0.20 0.24 0.28 0.28 0.30 0.27 0.22 0.19 0.19 0.19 0.24 0.28 0.28 0.31 0.31 0.32 0.37 0.39 0.47 0.54 0.59 0.60 0.58 0.61 0.62 0.61 0.58 0.50 0.48 0.45 0.42
0.19 0.22 0.22 0.19 0.17 0.17 0.16 0.16 0.15 0.14 0.14 0.12 0.16 0.23 0.26 0.27 0.26 0.29 0.30 0.28 0.25 0.22 0.20 0.22 0.27 0.27 0.27 0.27 0.29 0.32 0.33 0.35 0.41 0.48 0.53 0.53 0.56 0.59 0.61 0.61 0.56 0.53 0.51 0.48
0.17 0.21 0.23 0.22 0.19 0.18 0.19 0.20 0.19 0.16 0.15 0.14 0.16 0.24 0.30 0.31 0.31 0.33 0.36 0.33 0.28 0.24 0.22 0.25 0.25 0.25 0.26 0.29 0.32 0.34 0.34 0.35 0.37 0.40 0.45 0.48 0.52 0.54 0.58 0.60 0.59 0.57 0.56 0.57
0.17 0.18 0.19 0.18 0.15 0.15 0.18 0.19 0.21 0.22 0.21 0.18 0.16 0.22 0.30 0.37 0.40 0.38 0.37 0.37 0.35 0.35 0.35 0.35 0.37 0.31 0.28 0.33 0.36 0.33 0.32 0.32 0.34 0.39 0.43 0.46 0.49 0.48 0.51 0.54 0.54 0.54 0.52 0.53
0.23 0.25 0.26 0.23 0.17 0.15 0.16 0.18 0.19 0.21 0.23 0.23 0.20 0.21 0.30 0.36 0.38 0.35 0.32 0.33 0.39 0.46 0.46 0.47 0.45 0.40 0.37 0.38 0.41 0.36 0.35 0.36 0.39 0.43 0.43 0.41 0.42 0.45 0.47 0.49 0.51 0.53 0.55 0.57
0.30 0.35 0.33 0.29 0.22 0.17 0.15 0.16 0.18 0.21 0.23 0.24 0.25 0.27 0.35 0.43 0.42 0.39 0.36 0.36 0.38 0.42 0.46 0.49 0.47 0.47 0.46 0.49 0.51 0.43 0.41 0.40 0.42 0.45 0.46 0.44 0.42 0.43 0.47 0.51 0.54 0.58 0.61 0.62
0.32 0.34 0.31 0.31 0.28 0.23 0.21 0.20 0.20 0.21 0.23 0.25 0.27 0.31 0.39 0.48 0.50 0.46 0.42 0.44 0.47 0.50 0.48 0.48 0.47 0.53 0.59 0.59 0.48 0.45 0.45 0.45 0.47 0.46 0.46 0.48 0.50 0.51 0.51 0.56 0.60 0.63 0.65 0.65
0.31 0.31 0.35 0.37 0.36 0.32 0.29 0.28 0.28 0.28 0.28 0.30 0.33 0.35 0.39 0.44 0.52 0.56 0.49 0.44 0.45 0.50 0.47 0.49 0.52 0.58 0.62 0.56 0.52 0.50 0.48 0.46 0.46 0.47 0.50 0.53 0.55 0.58 0.61 0.62 0.62 0.64 0.69 0.73
0.26 0.29 0.34 0.38 0.38 0.37 0.37 0.37 0.38 0.38 0.36 0.36 0.38 0.39 0.41 0.45 0.49 0.56 0.51 0.48 0.51 0.52 0.46 0.52 0.57 0.62 0.62 0.51 0.51 0.55 0.57 0.55 0.54 0.56 0.59 0.60 0.60 0.62 0.66 0.68 0.69 0.69 0.74 0.80
0.23 0.23 0.27 0.33 0.37 0.37 0.36 0.35 0.36 0.39 0.39 0.38 0.39 0.42 0.44 0.48 0.54 0.59 0.55 0.47 0.51 0.55 0.54 0.62 0.66 0.64 0.59 0.58 0.58 0.60 0.63 0.65 0.69 0.71 0.67 0.67 0.68 0.71 0.75 0.78 0.79 0.81 0.80 0.81
0.22 0.21 0.23 0.29 0.32 0.32 0.31 0.31 0.33 0.37 0.39 0.38 0.38 0.42 0.45 0.47 0.51 0.58 0.62 0.57 0.54 0.59 0.60 0.63 0.64 0.65 0.62 0.68 0.71 0.72 0.72 0.73 0.72 0.69 0.66 0.67 0.68 0.70 0.72 0.74 0.75 0.78 0.81 0.82
0.23 0.21 0.23 0.26 0.28 0.27 0.28 0.30 0.34 0.37 0.41 0.43 0.42 0.43 0.43 0.45 0.49 0.55 0.62 0.63 0.59 0.59 0.64 0.67 0.67 0.66 0.67 0.71 0.76 0.79 0.79 0.76 0.74 0.73 0.72 0.73 0.74 0.75 0.75 0.74 0.76 0.79 0.83 0.86

GEFSNGP_prec_meanprecacc_300.txt.gz
Total_Precipitation_Accumulation
0.38 0.36 0.44 0.65 0.76 0.68 0.72 0.82 1.08 0.97 0.83 0.82 0.79 0.82 0.83 0.88 0.92 0.92 0.96 0.97 0.94 0.95 1.01 1.11 1.16 1.17 1.25 1.31 1.34 1.44 1.51 1.51 1.49 1.37 1.23 1.16 1.15 1.06 1.10 1.18 1.16 1.22 1.29 1.37
0.22 0.19 0.29 0.55 0.66 0.67 0.65 0.64 0.67 0.62 0.60 0.51 0.50 0.56 0.61 0.68 0.67 0.70 0.75 0.75 0.73 0.72 0.75 0.83 0.79 0.82 0.88 1.02 1.19 1.35 1.41 1.37 1.30 1.21 1.19 1.12 1.03 0.97 0.98 1.02 1.06 1.11 1.16 1.33
0.31 0.23 0.32 0.56 0.57 0.61 0.47 0.34 0.33 0.41 0.43 0.36 0.37 0.45 0.51 0.61 0.64 0.64 0.65 0.65 0.67 0.67 0.65 0.70 0.68 0.72 0.78 0.87 1.03 1.14 1.19 1.15 1.06 1.01 1.00 1.00 0.94 0.94 0.96 0.96 0.99 1.03 1.02 1.15
0.46 0.43 0.66 0.75 0.59 0.51 0.43 0.29 0.22 0.24 0.26 0.28 0.31 0.39 0.42 0.49 0.59 0.57 0.57 0.57 0.61 0.63 0.61 0.64 0.71 0.77 0.83 0.89 0.91 0.98 1.07 1.06 0.99 0.92 0.87 0.88 0.86 0.88 0.95 0.94 0.90 0.93 0.93 0.92
0.59 0.58 0.62 0.58 0.42 0.39 0.48 0.48 0.26 0.20 0.20 0.21 0.25 0.33 0.36 0.37 0.43 0.43 0.43 0.41 0.41 0.42 0.44 0.51 0.58 0.64 0.65 0.68 0.70 0.75 0.82 0.87 0.83 0.75 0.78 0.84 0.82 0.92 0.94 0.87 0.87 0.84 0.87 0.87
0.65 0.67 0.71 0.51 0.26 0.22 0.38 0.65 0.33 0.18 0.15 0.15 0.22 0.36 0.32 0.26 0.27 0.27 0.29 0.28 0.26 0.27 0.29 0.34 0.40 0.53 0.59 0.56 0.51 0.53 0.59 0.62 0.67 0.65 0.67 0.75 0.83 0.91 0.93 0.87 0.89 0.86 0.81 0.78
0.73 0.85 0.89 0.59 0.32 0.27 0.56 0.68 0.33 0.19 0.15 0.17 0.22 0.25 0.23 0.21 0.22 0.21 0.23 0.24 0.24 0.25 0.26 0.30 0.36 0.43 0.46 0.50 0.47 0.47 0.52 0.52 0.55 0.58 0.62 0.73 0.79 0.75 0.75 0.77 0.81 0.81 0.83 0.78
0.92 1.14 1.22 0.75 0.54 0.55 0.53 0.34 0.22 0.17 0.17 0.20 0.22 0.20 0.19 0.20 0.19 0.17 0.19 0.21 0.21 0.22 0.26 0.31 0.32 0.34 0.37 0.38 0.39 0.42 0.44 0.48 0.46 0.44 0.46 0.53 0.61 0.69 0.69 0.67 0.69 0.68 0.69 0.68
1.01 1.03 0.86 0.62 0.53 0.45 0.37 0.30 0.20 0.19 0.20 0.21 0.21 0.20 0.19 0.17 0.17 0.14 0.16 0.18 0.20 0.25 0.30 0.34 0.35 0.33 0.31 0.32 0.35 0.41 0.45 0.47 0.45 0.43 0.42 0.46 0.54 0.64 0.71 0.73 0.71 0.67 0.61 0.58
0.52 0.52 0.45 0.37 0.32 0.29 0.26 0.25 0.20 0.17 0.19 0.22 0.22 0.21 0.19 0.18 0.17 0.17 0.16 0.18 0.20 0.26 0.30 0.36 0.36 0.35 0.33 0.32 0.32 0.35 0.40 0.45 0.45 0.46 0.47 0.47 0.51 0.58 0.72 0.77 0.70 0.63 0.61 0.60
0.33 0.29 0.29 0.27 0.25 0.25 0.24 0.20 0.16 0.15 0.18 0.23 0.23 0.21 0.19 0.20 0.22 0.20 0.19 0.18 0.20 0.24 0.29 0.33 0.38 0.37 0.36 0.34 0.32 0.32 0.36 0.40 0.40 0.44 0.49 0.48 0.43 0.46 0.57 0.65 0.69 0.72 0.71 0.70
0.29 0.20 0.23 0.25 0.23 0.22 0.23 0.19 0.17 0.18 0.22 0.23 0.21 0.19 0.18 0.19 0.24 0.25 0.22 0.21 0.23 0.24 0.28 0.29 0.33 0.39 0.40 0.42 0.39 0.37 0.36 0.38 0.40 0.43 0.48 0.49 0.45 0.44 0.48 0.52 0.61 0.65 0.66 0.67
0.21 0.16 0.17 0.20 0.19 0.18 0.17 0.15 0.16 0.19 0.21 0.22 0.20 0.20 0.17 0.17 0.23 0.26 0.26 0.27 0.30 0.30 0.30 0.27 0.28 0.32 0.36 0.44 0.45 0.46 0.43 0.43 0.44 0.44 0.44 0.45 0.48 0.49 0.49 0.46 0.45 0.48 0.51 0.50
0.14 0.15 0.18 0.19 0.18 0.16 0.16 0.15 0.18 0.19 0.19 0.19 0.19 0.18 0.16 0.17 0.21 0.22 0.25 0.29 0.30 0.30 0.31 0.32 0.31 0.32 0.38 0.45 0.49 0.55 0.58 0.59 0.53 0.49 0.48 0.47 0.48 0.52 0.56 0.58 0.51 0.42 0.42 0.44
0.14 0.16 0.20 0.19 0.18 0.17 0.15 0.16 0.17 0.15 0.16 0.17 0.17 0.17 0.19 0.23 0.24 0.25 0.25 0.24 0.23 0.23 0.23 0.28 0.30 0.31 0.36 0.38 0.42 0.47 0.55 0.59 0.59 0.58 0.57 0.55 0.55 0.61 0.62 0.57 0.51 0.49 0.45 0.43
0.18 0.16 0.16 0.15 0.16 0.15 0.13 0.14 0.16 0.15 0.15 0.16 0.16 0.21 0.26 0.30 0.29 0.31 0.27 0.22 0.19 0.19 0.19 0.24 0.28 0.29 0.32 0.32 0.33 0.38 0.40 0.48 0.55 0.60 0.61 0.60 0.62 0.63 0.63 0.59 0.51 0.49 0.47 0.45
0.19 0.22 0.22 0.19 0.18 0.17 0.17 0.16 0.15 0.15 0.15 0.13 0.17 0.24 0.28 0.29 0.28 0.30 0.31 0.28 0.25 0.22 0.20 0.22 0.27 0.28 0.28 0.28 0.30 0.33 0.34 0.36 0.42 0.49 0.54 0.54 0.57 0.60 0.62 0.63 0.58 0.55 0.52 0.50
0.17 0.21 0.24 0.23 0.19 0.19 0.19 0.20 0.19 0.17 0.15 0.15 0.17 0.25 0.32 0.32 0.33 0.34 0.37 0.34 0.28 0.24 0.22 0.25 0.26 0.26 0.26 0.29 0.32 0.35 0.35 0.36 0.37 0.41 0.46 0.49 0.53 0.56 0.59 0.62 0.61 0.59 0.58 0.58
0.17 0.18 0.19 0.19 0.16 0.16 0.19 0.20 0.21 0.22 0.22 0.19 0.19 0.25 0.33 0.39 0.42 0.40 0.38 0.38 0.36 0.35 0.35 0.35 0.37 0.31 0.29 0.33 0.37 0.34 0.33 0.33 0.35 0.39 0.44 0.47 0.50 0.50 0.53 0.55 0.55 0.55 0.53 0.54
0.23 0.25 0.26 0.24 0.18 0.15 0.16 0.18 0.19 0.22 0.24 0.25 0.23 0.24 0.32 0.39 0.40 0.37 0.34 0.35 0.41 0.48 0.47 0.47 0.45 0.40 0.37 0.38 0.41 0.37 0.35 0.36 0.40 0.44 0.44 0.43 0.44 0.47 0.49 0.51 0.53 0.54 0.56 0.58
0.30 0.35 0.33 0.30 0.23 0.17 0.16 0.17 0.19 0.22 0.26 0.25 0.26 0.29 0.37 0.45 0.44 0.41 0.37 0.38 0.40 0.44 0.48 0.51 0.49 0.49 0.47 0.50 0.52 0.44 0.41 0.41 0.43 0.46 0.48 0.46 0.44 0.45 0.49 0.53 0.56 0.59 0.62 0.64
0.32 0.34 0.31 0.31 0.28 0.23 0.21 0.20 0.21 0.22 0.24 0.27 0.28 0.32 0.40 0.49 0.51 0.47 0.43 0.46 0.48 0.51 0.50 0.50 0.49 0.55 0.61 0.61 0.50 0.46 0.47 0.47 0.49 0.48 0.48 0.50 0.52 0.52 0.52 0.57 0.62 0.65 0.66 0.68
0.31 0.31 0.35 0.37 0.36 0.32 0.29 0.28 0.28 0.28 0.29 0.32 0.34 0.36 0.40 0.45 0.53 0.57 0.50 0.45 0.46 0.51 0.48 0.50 0.54 0.59 0.64 0.58 0.53 0.51 0.49 0.47 0.47 0.49 0.51 0.55 0.56 0.60 0.62 0.64 0.65 0.67 0.72 0.77
0.26 0.29 0.34 0.39 0.39 0.37 0.38 0.38 0.38 0.38 0.37 0.37 0.39 0.40 0.42 0.45 0.50 0.56 0.52 0.49 0.52 0.53 0.47 0.53 0.59 0.63 0.63 0.52 0.52 0.56 0.58 0.56 0.56 0.58 0.60 0.61 0.61 0.63 0.67 0.70 0.71 0.72 0.78 0.85
0.23 0.24 0.28 0.34 0.37 0.37 0.36 0.36 0.37 0.40 0.41 0.40 0.42 0.44 0.45 0.49 0.55 0.59 0.55 0.48 0.51 0.55 0.55 0.63 0.67 0.66 0.61 0.59 0.60 0.62 0.65 0.67 0.71 0.72 0.68 0.68 0.70 0.73 0.76 0.80 0.82 0.84 0.84 0.85
0.23 0.22 0.24 0.29 0.33 0.33 0.32 0.32 0.34 0.38 0.40 0.39 0.40 0.45 0.48 0.50 0.53 0.60 0.63 0.58 0.55 0.60 0.62 0.65 0.66 0.68 0.65 0.71 0.74 0.75 0.75 0.75 0.74 0.70 0.68 0.68 0.70 0.72 0.74 0.76 0.78 0.82 0.86 0.85
0.24 0.23 0.24 0.27 0.29 0.28 0.29 0.32 0.36 0.38 0.42 0.44 0.44 0.45 0.45 0.48 0.52 0.58 0.66 0.67 0.63 0.63 0.68 0.71 0.70 0.70 0.70 0.73 0.78 0.82 0.82 0.78 0.76 0.75 0.74 0.75 0.76 0.78 0.79 0.79 0.81 0.83 0.86 0.89

GEFSNGP_prec_meanprecacc_306.txt.gz
Total_Precipitation_Accumulation
0.38 0.36 0.44 0.66 0.77 0.68 0.73 0.84 1.10 0.99 0.85 0.82 0.81 0.85 0.85 0.89 0.92 0.92 0.96 0.97 0.94 0.96 1.01 1.12 1.18 1.20 1.28 1.34 1.37 1.47 1.55 1.54 1.51 1.40 1.30 1.27 1.27 1.14 1.16 1.22 1.20 1.25 1.31 1.39
0.23 0.20 0.29 0.55 0.66 0.67 0.65 0.65 0.69 0.63 0.61 0.51 0.51 0.58 0.63 0.70 0.68 0.71 0.76 0.76 0.74 0.73 0.76 0.83 0.79 0.82 0.89 1.04 1.21 1.37 1.43 1.39 1.32 1.23 1.24 1.22 1.16 1.08 1.07 1.09 1.12 1.15 1.19 1.35
0.33 0.24 0.34 0.58 0.58 0.61 0.47 0.34 0.34 0.42 0.44 0.37 0.38 0.48 0.55 0.63 0.65 0.65 0.65 0.66 0.68 0.68 0.66 0.70 0.68 0.72 0.79 0.88 1.04 1.17 1.22 1.18 1.08 1.03 1.03 1.05 1.01 1.04 1.06 1.06 1.08 1.10 1.06 1.18
0.49 0.46 0.69 0.77 0.60 0.51 0.44 0.30 0.23 0.24 0.27 0.29 0.33 0.42 0.48 0.53 0.61 0.59 0.58 0.58 0.61 0.63 0.61 0.65 0.72 0.77 0.84 0.91 0.93 1.01 1.09 1.08 1.01 0.95 0.90 0.91 0.91 0.96 1.03 1.01 0.99 1.02 1.02 1.00
0.62 0.63 0.65 0.60 0.42 0.39 0.49 0.49 0.27 0.21 0.21 0.22 0.26 0.37 0.41 0.42 0.46 0.45 0.44 0.41 0.41 0.43 0.44 0.51 0.59 0.66 0.67 0.70 0.72 0.77 0.84 0.88 0.85 0.77 0.79 0.86 0.86 0.98 1.01 0.93 0.92 0.90 0.94 0.96
0.68 0.71 0.75 0.54 0.26 0.22 0.38 0.66 0.33 0.20 0.16 0.16 0.23 0.38 0.36 0.29 0.29 0.29 0.29 0.28 0.26 0.28 0.30 0.35 0.42 0.56 0.61 0.58 0.52 0.54 0.60 0.63 0.68 0.66 0.68 0.76 0.85 0.95 0.99 0.93 0.93 0.89 0.85 0.83
0.75 0.88 0.92 0.63 0.33 0.27 0.57 0.69 0.33 0.20 0.16 0.18 0.23 0.26 0.24 0.22 0.23 0.22 0.23 0.24 0.24 0.25 0.28 0.32 0.38 0.46 0.50 0.53 0.49 0.49 0.53 0.54 0.57 0.59 0.63 0.74 0.81 0.77 0.78 0.81 0.86 0.85 0.87 0.82
0.95 1.17 1.24 0.77 0.55 0.56 0.54 0.35 0.23 0.18 0.17 0.21 0.23 0.20 0.19 0.20 0.20 0.18 0.19 0.21 0.21 0.23 0.28 0.34 0.36 0.37 0.39 0.40 0.41 0.43 0.45 0.49 0.47 0.46 0.47 0.54 0.62 0.70 0.70 0.70 0.73 0.71 0.72 0.71
1.04 1.06 0.88 0.63 0.55 0.47 0.38 0.31 0.21 0.20 0.20 0.21 0.21 0.20 0.19 0.17 0.17 0.15 0.17 0.18 0.20 0.26 0.32 0.37 0.39 0.36 0.34 0.34 0.36 0.42 0.46 0.49 0.46 0.45 0.44 0.47 0.55 0.65 0.73 0.75 0.73 0.70 0.63 0.61
0.54 0.54 0.46 0.38 0.33 0.31 0.27 0.26 0.20 0.18 0.20 0.23 0.22 0.21 0.19 0.18 0.17 0.17 0.17 0.18 0.20 0.27 0.31 0.38 0.38 0.38 0.35 0.33 0.32 0.36 0.41 0.46 0.45 0.47 0.48 0.48 0.51 0.60 0.74 0.79 0.72 0.65 0.63 0.62
0.36 0.31 0.30 0.27 0.25 0.25 0.24 0.20 0.16 0.16 0.19 0.24 0.24 0.22 0.20 0.20 0.22 0.21 0.19 0.19 0.21 0.25 0.31 0.35 0.40 0.38 0.38 0.36 0.33 0.33 0.36 0.40 0.41 0.45 0.49 0.48 0.44 0.47 0.59 0.66 0.72 0.75 0.74 0.73
0.32 0.21 0.24 0.26 0.23 0.22 0.23 0.19 0.17 0.19 0.23 0.24 0.22 0.21 0.20 0.21 0.26 0.27 0.24 0.22 0.23 0.25 0.29 0.30 0.35 0.40 0.42 0.45 0.41 0.38 0.37 0.39 0.41 0.44 0.49 0.50 0.45 0.44 0.49 0.53 0.62 0.67 0.68 0.70
0.22 0.16 0.18 0.20 0.19 0.18 0.18 0.15 0.17 0.19 0.23 0.23 0.21 0.22 0.19 0.18 0.25 0.28 0.28 0.29 0.31 0.32 0.32 0.29 0.30 0.33 0.37 0.46 0.47 0.47 0.45 0.45 0.46 0.46 0.45 0.46 0.49 0.50 0.50 0.47 0.47 0.50 0.53 0.52
0.15 0.15 0.18 0.19 0.18 0.16 0.16 0.15 0.18 0.19 0.19 0.20 0.19 0.19 0.18 0.20 0.24 0.25 0.26 0.30 0.32 0.33 0.34 0.34 0.33 0.34 0.40 0.47 0.51 0.56 0.59 0.61 0.55 0.51 0.49 0.48 0.49 0.54 0.58 0.60 0.54 0.46 0.45 0.48
0.14 0.16 0.20 0.19 0.18 0.17 0.15 0.16 0.17 0.16 0.17 0.18 0.17 0.18 0.21 0.25 0.26 0.28 0.27 0.25 0.24 0.25 0.27 0.32 0.33 0.33 0.39 0.41 0.44 0.48 0.56 0.60 0.60 0.60 0.58 0.56 0.57 0.63 0.64 0.59 0.53 0.51 0.48 0.47
0.18 0.16 0.16 0.15 0.16 0.15 0.13 0.14 0.16 0.15 0.15 0.17 0.17 0.22 0.27 0.31 0.31 0.32 0.29 0.23 0.20 0.20 0.21 0.28 0.32 0.31 0.34 0.34 0.35 0.40 0.42 0.49 0.57 0.61 0.62 0.61 0.63 0.64 0.64 0.61 0.53 0.51 0.48 0.47
0.19 0.22 0.22 0.19 0.18 0.17 0.17 0.16 0.15 0.16 0.15 0.13 0.18 0.25 0.29 0.30 0.29 0.32 0.32 0.28 0.25 0.23 0.21 0.24 0.29 0.30 0.29 0.29 0.31 0.34 0.35 0.37 0.43 0.49 0.54 0.55 0.59 0.62 0.63 0.64 0.59 0.55 0.53 0.51
0.17 0.21 0.24 0.23 0.19 0.19 0.19 0.20 0.19 0.17 0.15 0.15 0.18 0.26 0.32 0.33 0.35 0.37 0.39 0.35 0.29 0.24 0.23 0.26 0.27 0.28 0.28 0.31 0.34 0.36 0.36 0.37 0.39 0.42 0.46 0.50 0.54 0.56 0.60 0.63 0.62 0.59 0.59 0.60
0.17 0.18 0.19 0.19 0.16 0.16 0.19 0.20 0.21 0.22 0.22 0.19 0.19 0.25 0.33 0.40 0.43 0.42 0.41 0.40 0.37 0.37 0.37 0.37 0.39 0.33 0.32 0.36 0.39 0.36 0.35 0.34 0.36 0.41 0.44 0.48 0.50 0.51 0.54 0.56 0.56 0.56 0.54 0.55
0.23 0.25 0.26 0.24 0.18 0.15 0.16 0.18 0.19 0.22 0.24 0.25 0.23 0.25 0.32 0.39 0.41 0.38 0.36 0.37 0.43 0.50 0.50 0.50 0.48 0.43 0.40 0.41 0.45 0.40 0.39 0.39 0.42 0.46 0.45 0.44 0.45 0.48 0.50 0.51 0.53 0.55 0.57 0.59
0.30 0.35 0.33 0.30 0.23 0.17 0.16 0.17 0.19 0.22 0.26 0.25 0.27 0.30 0.38 0.46 0.45 0.43 0.40 0.40 0.42 0.46 0.50 0.53 0.51 0.51 0.49 0.53 0.56 0.48 0.46 0.45 0.47 0.49 0.50 0.48 0.46 0.46 0.50 0.54 0.57 0.60 0.64 0.65
0.33 0.34 0.31 0.31 0.28 0.23 0.21 0.20 0.21 0.22 0.25 0.27 0.29 0.33 0.41 0.50 0.53 0.50 0.46 0.48 0.50 0.53 0.51 0.52 0.51 0.57 0.63 0.63 0.52 0.50 0.51 0.52 0.54 0.53 0.52 0.53 0.54 0.55 0.54 0.59 0.64 0.66 0.68 0.69
0.31 0.31 0.35 0.38 0.36 0.32 0.29 0.28 0.29 0.28 0.29 0.32 0.35 0.38 0.41 0.47 0.56 0.61 0.52 0.46 0.47 0.52 0.49 0.51 0.55 0.61 0.66 0.60 0.55 0.53 0.51 0.49 0.51 0.53 0.55 0.58 0.59 0.62 0.65 0.66 0.66 0.69 0.74 0.78
0.26 0.29 0.34 0.39 0.39 0.38 0.38 0.38 0.39 0.38 0.38 0.38 0.40 0.42 0.44 0.47 0.52 0.59 0.54 0.50 0.53 0.54 0.48 0.54 0.60 0.65 0.64 0.53 0.54 0.58 0.60 0.58 0.57 0.60 0.63 0.64 0.63 0.65 0.69 0.72 0.73 0.74 0.80 0.87
0.24 0.24 0.28 0.34 0.38 0.38 0.37 0.36 0.37 0.40 0.42 0.41 0.43 0.45 0.46 0.50 0.56 0.61 0.57 0.51 0.55 0.59 0.57 0.65 0.69 0.69 0.62 0.61 0.61 0.64 0.67 0.69 0.73 0.74 0.70 0.70 0.71 0.74 0.78 0.81 0.83 0.86 0.86 0.87
0.23 0.22 0.25 0.30 0.34 0.34 0.33 0.33 0.35 0.39 0.41 0.41 0.41 0.46 0.49 0.51 0.55 0.62 0.66 0.61 0.59 0.65 0.66 0.68 0.69 0.70 0.67 0.73 0.76 0.77 0.77 0.78 0.76 0.73 0.70 0.71 0.72 0.74 0.76 0.78 0.80 0.84 0.87 0.87
0.24 0.23 0.25 0.28 0.30 0.30 0.30 0.33 0.37 0.40 0.43 0.44 0.45 0.46 0.46 0.49 0.54 0.61 0.69 0.70 0.66 0.67 0.72 0.74 0.73 0.72 0.73 0.76 0.81 0.85 0.86 0.82 0.80 0.78 0.76 0.77 0.78 0.81 0.81 0.81 0.82 0.85 0.89 0.93